When you browse on this site, cookies collect data to enhance your experience and personalize the content and advertising you see.
Visit our Privacy Policy to learn more. By continuing to use the site, you agree to this use of cookies and data.
  • En España
  • Lista de países
  • Para 7 días
  • Temperatura del agua
  • El tiempo en el mapa
  • Informadores
  • user-avatar
    Iniciar sesión

    Tiempo cada hora Quito

    Hoy, 18 Agosto, Domingo

    Tiempo Temperatura Precipitaciones Viento Presión Humedad
    00:00 +14°C° 0 mm 1 mps 622 mmHg 35%
    01:00 +14°C° 0 mm 1 mps 622 mmHg 36%
    02:00 +13°C° 0 mm 1 mps 622 mmHg 38%
    03:00 +13°C° 0 mm 1 mps 622 mmHg 39%
    04:00 +12°C° 0 mm 1 mps 622 mmHg 41%
    05:00 +13°C° 0 mm 1 mps 622 mmHg 40%
    06:00 +13°C° 0 mm 1 mps 623 mmHg 40%
    07:00 +14°C° 0 mm 2 mps 623 mmHg 39%
    08:00 +18°C° 0 mm 2 mps 624 mmHg 33%
    09:00 +21°C° 0 mm 3 mps 625 mmHg 26%
    10:00 +26°C° 0 mm 3 mps 626 mmHg 19%
    11:00 +28°C° 0 mm 3 mps 626 mmHg 17%
    12:00 +29°C° 0 mm 2 mps 626 mmHg 15%
    13:00 +31°C° 0 mm 2 mps 626 mmHg 13%
    14:00 +31°C° 0 mm 2 mps 625 mmHg 13%
    15:00 +30°C° 0 mm 1 mps 624 mmHg 13%
    16:00 +30°C° 0 mm 1 mps 624 mmHg 13%
    17:00 +27°C° 0 mm 1 mps 623 mmHg 16%
    18:00 +24°C° 0 mm 1 mps 623 mmHg 18%
    19:00 +20°C° 0 mm 1 mps 622 mmHg 21%
    20:00 +20°C° 0 mm 1 mps 622 mmHg 22%
    21:00 +19°C° 0 mm 1 mps 622 mmHg 23%
    22:00 +18°C° 0 mm 1 mps 623 mmHg 23%
    23:00 +16°C° 0 mm 1 mps 622 mmHg 26%

    Mañana, 19 Agosto, Lunes

    Tiempo Temperatura Precipitaciones Viento Presión Humedad
    00:00 +16°C° 0 mm 2 mps 622 mmHg 28%
    01:00 +15°C° 0 mm 2 mps 622 mmHg 30%
    02:00 +14°C° 0 mm 2 mps 622 mmHg 33%
    03:00 +14°C° 0 mm 2 mps 621 mmHg 36%
    04:00 +13°C° 0 mm 2 mps 621 mmHg 39%
    05:00 +14°C° 0 mm 2 mps 622 mmHg 38%
    06:00 +14°C° 0 mm 2 mps 623 mmHg 36%
    07:00 +15°C° 0 mm 2 mps 623 mmHg 35%
    08:00 +18°C° 0 mm 3 mps 624 mmHg 30%
    09:00 +22°C° 0 mm 4 mps 625 mmHg 24%
    10:00 +26°C° 0 mm 5 mps 626 mmHg 19%
    11:00 +28°C° 0 mm 4 mps 625 mmHg 17%
    12:00 +29°C° 0 mm 3 mps 625 mmHg 15%
    13:00 +31°C° 0 mm 3 mps 625 mmHg 13%
    14:00 +31°C° 0 mm 3 mps 624 mmHg 12%
    15:00 +31°C° 0 mm 3 mps 624 mmHg 12%
    16:00 +30°C° 0 mm 3 mps 623 mmHg 12%
    17:00 +27°C° 0 mm 2 mps 623 mmHg 15%
    18:00 +24°C° 0 mm 2 mps 622 mmHg 18%
    19:00 +21°C° 0 mm 1 mps 622 mmHg 20%
    20:00 +19°C° 0 mm 2 mps 622 mmHg 22%
    21:00 +18°C° 0 mm 2 mps 622 mmHg 23%
    22:00 +17°C° 0 mm 2 mps 623 mmHg 24%
    23:00 +16°C° 0 mm 2 mps 622 mmHg 25%

    Pasado mañana, 20 Agosto, Martes

    Tiempo Temperatura Precipitaciones Viento Presión Humedad
    00:00 +15°C° 0 mm 2 mps 622 mmHg 26%
    01:00 +14°C° 0 mm 2 mps 621 mmHg 26%
    02:00 +13°C° 0 mm 2 mps 621 mmHg 26%
    03:00 +13°C° 0 mm 2 mps 621 mmHg 26%
    04:00 +12°C° 0 mm 2 mps 621 mmHg 25%
    05:00 +12°C° 0 mm 2 mps 622 mmHg 24%
    06:00 +13°C° 0 mm 2 mps 623 mmHg 22%
    07:00 +14°C° 0 mm 2 mps 623 mmHg 20%
    08:00 +17°C° 0 mm 3 mps 624 mmHg 18%
    09:00 +20°C° 0 mm 4 mps 625 mmHg 15%
    10:00 +25°C° 0 mm 5 mps 626 mmHg 13%
    11:00 +26°C° 0 mm 4 mps 626 mmHg 12%
    12:00 +28°C° 0 mm 4 mps 625 mmHg 11%
    13:00 +30°C° 0 mm 3 mps 625 mmHg 10%
    14:00 +30°C° 0 mm 3 mps 625 mmHg 10%
    15:00 +30°C° 0 mm 2 mps 624 mmHg 10%
    16:00 +30°C° 0 mm 2 mps 624 mmHg 10%
    17:00 +27°C° 0 mm 2 mps 623 mmHg 13%
    18:00 +23°C° 0 mm 2 mps 623 mmHg 16%
    19:00 +19°C° 0 mm 2 mps 622 mmHg 19%
    20:00 +18°C° 0 mm 2 mps 622 mmHg 19%
    21:00 +18°C° 0 mm 2 mps 623 mmHg 20%
    22:00 +17°C° 0 mm 2 mps 623 mmHg 21%
    23:00 +16°C° 0 mm 2 mps 622 mmHg 22%

    21 Agosto, Miércoles

    Tiempo Temperatura Precipitaciones Viento Presión Humedad
    00:00 +14°C° 0 mm 2 mps 622 mmHg 23%
    01:00 +13°C° 0 mm 2 mps 622 mmHg 25%
    02:00 +13°C° 0 mm 2 mps 622 mmHg 27%
    03:00 +12°C° 0 mm 2 mps 622 mmHg 29%
    04:00 +12°C° 0 mm 2 mps 621 mmHg 30%
    05:00 +12°C° 0 mm 2 mps 622 mmHg 29%
    06:00 +13°C° 0 mm 2 mps 623 mmHg 29%
    07:00 +14°C° 0 mm 2 mps 624 mmHg 28%
    08:00 +17°C° 0 mm 3 mps 625 mmHg 24%
    09:00 +20°C° 0 mm 4 mps 625 mmHg 20%
    10:00 +25°C° 0 mm 4 mps 626 mmHg 16%
    11:00 +27°C° 0 mm 4 mps 626 mmHg 14%
    12:00 +29°C° 0 mm 3 mps 626 mmHg 13%
    13:00 +31°C° 0 mm 3 mps 626 mmHg 11%
    14:00 +30°C° 0 mm 2 mps 625 mmHg 11%
    15:00 +30°C° 0 mm 2 mps 625 mmHg 11%
    16:00 +30°C° 0 mm 2 mps 624 mmHg 11%
    17:00 +27°C° 0 mm 2 mps 623 mmHg 14%
    18:00 +23°C° 0 mm 1 mps 623 mmHg 17%
    19:00 +20°C° 0 mm 1 mps 622 mmHg 20%
    20:00 +19°C° 0 mm 1 mps 622 mmHg 20%
    21:00 +19°C° 0 mm 1 mps 623 mmHg 20%
    22:00 +17°C° 0 mm 2 mps 623 mmHg 21%
    23:00 +16°C° 0 mm 2 mps 623 mmHg 24%

    22 Agosto, Jueves

    Tiempo Temperatura Precipitaciones Viento Presión Humedad
    00:00 +15°C° 0 mm 2 mps 623 mmHg 27%
    01:00 +13°C° 0 mm 3 mps 622 mmHg 30%
    02:00 +14°C° 0 mm 2 mps 622 mmHg 32%
    03:00 +13°C° 0 mm 2 mps 622 mmHg 35%
    04:00 +12°C° 0 mm 2 mps 622 mmHg 37%
    05:00 +13°C° 0 mm 2 mps 623 mmHg 37%
    06:00 +13°C° 0 mm 2 mps 623 mmHg 36%
    07:00 +14°C° 0 mm 2 mps 624 mmHg 36%
    08:00 +17°C° 0 mm 3 mps 625 mmHg 31%
    09:00 +20°C° 0 mm 4 mps 626 mmHg 26%
    10:00 +23°C° 0 mm 4 mps 627 mmHg 21%
    11:00 +26°C° 0 mm 4 mps 626 mmHg 19%
    12:00 +28°C° 0 mm 3 mps 626 mmHg 16%
    13:00 +30°C° 0 mm 3 mps 626 mmHg 14%
    14:00 +30°C° 0 mm 3 mps 625 mmHg 14%
    15:00 +30°C° 0 mm 2 mps 625 mmHg 13%
    16:00 +30°C° 0 mm 2 mps 624 mmHg 13%
    17:00 +26°C° 0 mm 2 mps 624 mmHg 17%
    18:00 +23°C° 0 mm 1 mps 623 mmHg 20%
    19:00 +20°C° 0 mm 1 mps 622 mmHg 24%
    20:00 +19°C° 0 mm 1 mps 623 mmHg 24%
    21:00 +19°C° 0 mm 1 mps 623 mmHg 25%
    22:00 +18°C° 0 mm 1 mps 623 mmHg 25%
    23:00 +16°C° 0 mm 2 mps 623 mmHg 27%

    23 Agosto, Viernes

    Tiempo Temperatura Precipitaciones Viento Presión Humedad
    00:00 +14°C° 0 mm 2 mps 623 mmHg 29%
    01:00 +13°C° 0 mm 2 mps 622 mmHg 32%
    02:00 +13°C° 0 mm 2 mps 622 mmHg 34%
    03:00 +12°C° 0 mm 2 mps 622 mmHg 37%
    04:00 +10°C° 0 mm 2 mps 622 mmHg 40%
    05:00 +12°C° 0 mm 2 mps 623 mmHg 39%
    06:00 +13°C° 0 mm 2 mps 623 mmHg 38%
    07:00 +12°C° 0 mm 3 mps 624 mmHg 38%
    08:00 +16°C° 0 mm 3 mps 625 mmHg 33%
    09:00 +20°C° 0 mm 4 mps 626 mmHg 28%
    10:00 +23°C° 0 mm 5 mps 626 mmHg 23%
    11:00 +26°C° 0 mm 4 mps 626 mmHg 20%
    12:00 +28°C° 0 mm 4 mps 626 mmHg 17%
    13:00 +30°C° 0 mm 3 mps 625 mmHg 14%
    14:00 +30°C° 0 mm 3 mps 625 mmHg 13%
    15:00 +30°C° 0 mm 3 mps 624 mmHg 13%
    16:00 +30°C° 0 mm 2 mps 624 mmHg 12%
    17:00 +26°C° 0 mm 2 mps 623 mmHg 15%
    18:00 +23°C° 0 mm 2 mps 623 mmHg 19%
    19:00 +20°C° 0 mm 1 mps 622 mmHg 22%
    20:00 +19°C° 0 mm 1 mps 622 mmHg 24%
    21:00 +18°C° 0 mm 1 mps 623 mmHg 25%
    22:00 +16°C° 0 mm 1 mps 623 mmHg 27%
    23:00 +15°C° 0 mm 1 mps 623 mmHg 29%
    Mostrar más